Time,TemperatureF,DewpointF,PressureIn,WindDirection,WindDirectionDegrees,WindSpeedMPH,WindSpeedGustMPH,Humidity,HourlyPrecipIn,Conditions,Clouds,dailyrainin,SoftwareType,DateUTC
2013-03-15 17:11:00,37.0,21.1,29.41,North,0,5.8,-999.0,52,-99.99,,,0.00,Acu-Link.com,2013-03-15 21:11:00,
2013-03-15 17:26:00,36.3,23.4,29.41,West,270,7.4,-999.0,59,-99.99,,,0.00,Acu-Link.com,2013-03-15 21:26:00,
2013-03-15 17:42:00,35.8,24.4,29.41,NNW,337,7.8,-999.0,63,-99.99,,,0.00,Acu-Link.com,2013-03-15 21:42:00,
2013-03-15 17:57:00,35.6,24.6,29.41,West,270,4.7,-999.0,64,-99.99,,,0.00,Acu-Link.com,2013-03-15 21:57:00,
2013-03-15 18:12:00,35.6,25.0,29.40,North,0,2.7,-999.0,65,-99.99,,,0.00,Acu-Link.com,2013-03-15 22:12:00,
2013-03-15 18:27:00,35.2,25.0,29.40,South,180,2.2,-999.0,66,-99.99,,,0.00,Acu-Link.com,2013-03-15 22:27:00,
2013-03-15 18:42:00,34.9,25.1,29.40,SSE,157,2.7,-999.0,67,-99.99,,,0.00,Acu-Link.com,2013-03-15 22:42:00,
2013-03-15 18:58:00,34.7,25.9,29.41,WSW,247,11.0,-999.0,70,-99.99,,,0.00,Acu-Link.com,2013-03-15 22:58:00,
2013-03-15 19:13:00,34.3,25.9,29.41,South,180,5.1,-999.0,71,-99.99,,,0.00,Acu-Link.com,2013-03-15 23:13:00,
2013-03-15 19:28:00,34.2,26.1,29.42,WNW,292,3.1,-999.0,72,-99.99,,,0.00,Acu-Link.com,2013-03-15 23:28:00,
2013-03-15 19:43:00,34.2,26.4,29.42,West,270,3.8,-999.0,73,-99.99,,,0.00,Acu-Link.com,2013-03-15 23:43:00,
2013-03-15 19:58:00,34.2,27.1,29.43,NW,315,5.8,-999.0,75,-99.99,,,0.00,Acu-Link.com,2013-03-15 23:58:00,
2013-03-15 20:14:00,33.6,26.9,29.42,South,180,3.8,-999.0,76,-99.99,,,0.00,Acu-Link.com,2013-03-16 00:14:00,
2013-03-15 20:29:00,33.3,27.2,29.42,SE,135,1.1,-999.0,78,-99.99,,,0.00,Acu-Link.com,2013-03-16 00:29:00,
2013-03-15 20:44:00,33.3,27.2,29.42,West,270,3.8,-999.0,78,-99.99,,,0.00,Acu-Link.com,2013-03-16 00:44:00,
2013-03-15 20:59:00,33.1,27.6,29.42,West,270,4.7,-999.0,80,-99.99,,,0.00,Acu-Link.com,2013-03-16 00:59:00,
2013-03-15 21:15:00,33.1,28.2,29.43,WNW,292,2.7,-999.0,82,-99.99,,,0.00,Acu-Link.com,2013-03-16 01:15:00,
2013-03-15 21:30:00,32.5,30.2,29.43,West,270,0.0,-999.0,91,-99.99,,,0.00,Acu-Link.com,2013-03-16 01:30:00,
2013-03-15 21:45:00,31.8,30.8,29.43,ESE,112,2.2,-999.0,96,-99.99,,,0.00,Acu-Link.com,2013-03-16 01:45:00,
2013-03-15 22:00:00,30.9,29.9,29.43,SSW,202,2.7,-999.0,96,-99.99,,,0.00,Acu-Link.com,2013-03-16 02:00:00,
2013-03-15 22:15:00,30.6,29.3,29.42,NW,315,2.2,-999.0,95,-99.99,,,0.00,Acu-Link.com,2013-03-16 02:15:00,
2013-03-15 22:31:00,30.6,28.8,29.42,SSW,202,3.8,-999.0,93,-99.99,,,0.00,Acu-Link.com,2013-03-16 02:31:00,
2013-03-15 23:01:00,30.2,27.9,29.43,North,0,0.0,-999.0,91,-99.99,,,0.00,Acu-Link.com,2013-03-16 03:01:00,
2013-03-15 23:16:00,30.4,27.3,29.43,WNW,292,3.8,-999.0,88,-99.99,,,0.00,Acu-Link.com,2013-03-16 03:16:00,
2013-03-15 23:31:00,31.3,26.1,29.43,West,270,2.7,-999.0,81,-99.99,,,0.00,Acu-Link.com,2013-03-16 03:31:00,
2013-03-15 23:47:00,32.0,26.2,29.43,WNW,292,3.8,-999.0,79,-99.99,,,0.00,Acu-Link.com,2013-03-16 03:47:00,